Location: Bailleul
(50.3375°N, 2.8513°E)
Time: 20:18:48
(UTC+00:00)

USA 215 - Pass Details

Date: 19 April 2021
Orbit: 1101 x 1107 km, 123.0° (Epoch: 15 May)

Event Time Altitude Azimuth Distance (km) Brightness Sun altitude
Exits shadow 20:00:58 13° 112° (ESE) 2,724 4.7 -11.0°
Maximum altitude 20:06:53 81° 27° (NNE) 1,121 3.3 -11.8°
Drops below altitude 10° 20:13:27 10° 302° (WNW) 2,965 7.0 -12.6°
Sets 20:15:56 0° 301° (WNW) 3,926 8.2 -12.9°
